Location: *
(41.7492°S, 135.4150°W)
Time: 06:54:44
(UTC+00:00)

ZACube-1 - Visible Passes

Search period start: 28 June 2022 00:00
Search period end: 08 July 2022 00:00
Orbit: 581 x 662 km, 97.6° (Epoch: 27 June)

Date Brightness Start Highest point End Pass type
(mag) Time Alt. Az. Time Alt. Az. Time Alt. Az.
28 Jun ? 02:08:48 10° SSW 02:11:41 18° WSW 02:14:30 10° WNW visible
29 Jun ? 02:27:44 10° SW 02:29:16 12° WSW 02:30:48 10° W visible
04 Jul ? 02:20:09 10° SSW 02:22:13 13° WSW 02:24:15 10° W visible
